www.pogodaiklimat.ru

Погода и климат >> Архив погоды >> Россия >> Краснодарский край >> Староминская


ПОГОДА в Староминская

  • Прогноз погоды в Староминская
  • Монитор погоды в Староминская
  • Климат города

АРХИВ ПОГОДЫ в Староминская

Время (UTC), дата Ветер
(напр.,м/с)
 
Видим.   Явления Облачность Т
(С)
Тd
(С)
f
(%)
Тe
(С)
Тes
(С)
Комфортность P
(гПа)
Po
(гПа)
Тmin
(С)
Tmax
(С)
R
(мм)
R24
(мм)
S
(см)
18 12.07 СЗ 1 10 км 6/0
[Ci fib]
+27.0 +14.3 46 +29 +29 жарко 1008.7 1003.8
21 12.07 СЗ 2 4000 м дымка ясно +24.4 +21.3 83 +31 +31 очень
душно
1008.8 1003.9
00 13.07 СЗ 1 10 км ясно +22.8 +19.0 79 +29 +29 очень
душно
1008.9 1003.9
03 13.07 СЗ 1 10 км 8/4 600 м
[Sc Ci fib]
+22.7 +17.5 72 +28 +28 душно 1009.0 1004.1 +20.3
06 13.07 СЗ 2 10 км ясно +30.0 +15.1 40 +32 +42 жарко 1008.7 1003.9
09 13.07 СЗ 3 10 км 8/8 600 м
[Cu med, cong]
+32.7 +13.0 30 +33 +36 жарко 1008.2 1003.4
12 13.07 С 3
{10}
10 км 6/6 600 м
[Cu med, cong]
+34.3 +11.0 24 +34 +38 очень
жарко
1007.3 1002.5
15 13.07 СЗ 3 10 км ясно +33.6 +10.0 24 +33 +35 жарко 1006.4 1001.6 +34.8
18 13.07 З 2 10 км ясно +27.5 +16.2 50 +31 +31 душно 1007.0 1002.1
21 13.07 СЗ 1 10 км ясно +24.7 +18.6 69 +29 +29 душно 1006.9 1002.0
00 14.07 СЗ 1 10 км ясно +23.3 +18.7 75 +29 +29 душно 1006.0 1001.0
03 14.07 С 1 10 км 4/3 600 м
[Cu med, cong Ci fib]
+24.1 +17.4 66 +28 +29 душно 1005.6 1000.7 +22.1
06 14.07 С 2 10 км 4/4 1000 м
[Cu hum]
+31.9 +13.2 32 +33 +39 жарко 1004.9 1000.1
09 14.07 З 6-10
{15}
10 км 6/6 1000 м
[Cu hum]
+28.4 +16.7 49 +32 +35 душно 1005.0 1000.1
12 14.07 З 4
{11}
10 км 3/3 1000 м
[Cu med, cong]
+33.2 +12.7 29 +34 +40 очень
жарко
1003.0 998.2
15 14.07 СЗ 5 10 км 3/3 1000 м
[Cu med, cong]
+32.2 +12.1 29 +32 +33 жарко 1002.9 998.1 +34.5
18 14.07 С 1 10 км 4/4 600 м
[Sc]
+25.8 +16.2 55 +29 +29 душно 1003.9 999.0
21 14.07 З 3 10 км 4/4 600 м
[Sc]
+23.1 +17.3 70 +28 +28 душно 1003.8 998.9
00 15.07 З 1 10 км ясно +21.3 +14.8 66 +24 +24 комфорт 1004.1 999.1
03 15.07 З 1 10 км 6/6 600 м
[Sc]
+21.9 +17.5 76 +26 +27 душно 1004.0 999.0 +20.3
06 15.07 З 2 10 км 9/0
[Ci sp]
+26.3 +16.8 56 +30 +38 душно 1003.5 998.6
09 15.07 СЗ 4 10 км 9/5 600 м
[Cu med, cong Ci sp]
+29.9 +14.0 38 +32 +37 жарко 1003.4 998.6
12 15.07 СЗ 4 10 км 9/6 600 м
[Cu Sc Ci sp]
+30.1 +13.1 35 +31 +34 жарко 1003.2 998.4
15 15.07 З 4 10 км 9/9 600 м
[Sc]
+28.7 +11.7 35 +30 +30 жарко 1003.1 998.3 +31.0
18 15.07 З 2 10 км 10/10 600 м
[Sc]
+26.2 +13.9 47 +28 +28 жарко 1004.0 999.2
21 15.07 ЮЗ 2 10 км 8/8 600 м
[Sc]
+24.1 +15.8 60 +27 +27 жарко 1003.9 999.0
00 16.07 Ю 2 10 км 10/10 600 м
[Sc]
+22.9 +16.8 68 +28 +28 душно 1003.4 998.5
03 16.07 В 1 10 км 10/10 600 м
[Sc]
+21.6 +16.8 74 +26 +26 душно 1003.1 998.2 +21.5
06 16.07 З 2 10 км 9/9 600 м
[Sc]
+26.7 +17.4 57 +31 +32 душно 1003.0 998.1
09 16.07 СВ 2 10 км гроза без осадков 9/9 600 м
[Cb cap]
+25.9 +13.9 47 +28 +30 жарко 1002.9 998.0
12 16.07 Ю 3 10 км в посл. час ливневой дождь {гроза} 9/9 600 м
[Cb cap]
+22.1 +16.4 70 +26 +27 душно 1003.1 998.2
15 16.07 З 2 10 км гроза без осадков 10/10 600 м
[Cb cap]
+22.6 +14.3 59 +26 +26 жарко 1003.7 998.8 +28.7 8
18 16.07 ЮЗ 1
{12}
4000 м гроза без осадков {ливн. осадки} 10/10 600 м
[Cb cap]
+19.7 +16.9 84 +23 +23 комфорт 1004.7 999.7
21 16.07 Ю 1 4000 м в посл. час ливневой дождь {гроза} 6/6 600 м
[Cb cap]
+20.4 +17.9 86 +25 +25 комфорт 1003.6 998.6
00 17.07 ЮЗ 4
{10}
10 км зарница {гроза} 8/8 600 м
[Cb cap]
+19.8 +15.4 76 +22 +22 комфорт 1003.1 998.1
03 17.07 ЮЗ 4
{10}
4000 м гроза, ливневой дождь 10/10 300 м
[Cb cap]
+18.1 +16.2 89 +18 +18 1003.7 998.7 +18.1 7
06 17.07 Ю 4 4000 м гроза, ливневой дождь 10/10 300 м
[Cb cap]
+17.1 +15.8 92 +17 +17 1003.3 998.3 +16.7
09 17.07 ЮЗ 5
{10}
10 км {гроза, ливн. осадки} 8/8 600 м
[Cb cap]
+23.4 +18.3 73 +29 +31 душно 1003.6 998.7
12 17.07 З 6-11
{11}
10 км {гроза, ливн. осадки} 8/8 600 м
[Cb cap]
+27.1 +14.4 46 +30 +31 душно 1003.4 998.5
15 17.07 ЮЗ 6-10
{12}
10 км 6/6 600 м
[Cb cap]
+26.8 +14.4 47 +29 +30 жарко 1003.6 998.8 +27.3 14
18 17.07 Ю 4
{11}
10 км 8/8 600 м
[Cb calv]
+22.9 +18.2 75 +29 +29 очень
душно
1003.6 998.7
21 17.07 Ю 5 10 км зарница 3/3 600 м
[Cb calv]
+22.1 +18.2 79 +27 +27 душно 1003.8 998.9
00 18.07 Ю 3 4000 м дымка {гроза, ливн. осадки} 3/3 600 м
[Cb calv]
+20.5 +18.3 87 +25 +25 комфорт 1003.1 998.2
03 18.07 Ю 3 4000 м дымка 4/4 600 м
[Cb calv]
+20.9 +18.5 86 +26 +26 душно 1003.4 998.4 +20.4 0.4
06 18.07 ЮЗ 4 10 км 8/6 600 м
[Cu med, cong Ci fib]
+25.3 +18.0 64 +30 +32 душно 1003.4 998.5
09 18.07 Ю 5
{12}
10 км 8/6 600 м
[Cu med, cong Ci fib]
+26.1 +16.9 57 +30 +33 душно 1003.4 998.5
12 18.07 ЮЗ 5-10
{10}
10 км 6/6 600 м
[Sc diur, vesp]
+28.6 +13.8 40 +30 +33 жарко 1003.2 998.3
15 18.07 ЮЗ 3
{10}
10 км 4/4 600 м
[Sc diur, vesp]
+28.9 +11.4 34 +30 +31 жарко 1003.0 998.2 +29.0
18 18.07 Ю 1 10 км 4/4 600 м
[Sc]
+23.5 +17.0 67 +27 +27 душно 1003.7 998.8
21 18.07 Ю 1 10 км 1/1 600 м
[Sc]
+22.1 +17.9 77 +27 +27 душно 1003.5 998.6
00 19.07 Ю 1 4000 м дымка 3/3 600 м
[Sc]
+20.8 +18.5 87 +26 +26 душно 1003.3 998.3
03 19.07 Ю 2 4000 м дымка 9/9 600 м
[Sc]
+21.3 +19.3 88 +26 +26 душно 1004.1 999.2 +20.7
06 19.07 З 1 10 км 9/9 600 м
[Sc]
+24.9 +16.2 58 +28 +29 жарко 1003.6 998.7
09 19.07 ЮВ 2 10 км 9/9 600 м
[Cb cap]
+26.1 +15.7 53 +29 +31 жарко 1003.7 998.8
12 19.07 Ю 2
{10}
10 км в посл. час гроза {ливн. осадки} 8/8 600 м
[Cb cap]
+26.6 +17.2 56 +31 +33 душно 1003.6 998.7

 

Местоположение метеостанции Староминская (Краснодарский край, Россия): широта 46.53 долгота 39.02 высота над уровнем моря 43 м.

В архиве по умолчанию представлена погода в Староминская за последнюю неделю. Архивные данные за месяц целиком и за предыдущие месяцы, начиная с января 2011 года, Вы можете получить, выбрав интересующий диапазон дат из раскрывающегося списка и нажав кнопку "Ввод!".


*Определитесь, кто Вы:
робот инопланетянин человек

Внимание! Время в таблицах - всемирное. Для получения местного времени необходимо прибавить поправку, которая в Староминская равна 3 ч.

Смотрите также архив погоды в соседних городах и на ближайших метеорологических станциях:

Погода в Кущевской (Краснодарский край, Россия) (46 км)
Погода в Маргаритово (Ростовская область, Россия) (46 км)
Погода в Каневской (Краснодарский край, Россия) (51 км)
Погода в Ейске (Краснодарский край, Россия) (65 км)
Погода в Таганроге (Ростовская область, Россия) (75 км)
Погода в Сосыке (Краснодарский край, Россия) (76 км)
Погода в Приморско-Ахтарске (Краснодарский край, Россия) (87 км)
Погода в Должанке (Краснодарский край, Россия) (100 км)
Погода в Тимашевске (Краснодарский край, Россия) (100 км)
Погода в Ростове-на-Дону (Ростовская область, Россия) (102 км)

Пояснения к столбцам:

Ветер - указаны скорость ветра в м/с - средняя за 10 мин, порывы в срок и между сроками (в фигурных скобках) и направление, откуда дует ветер: С - северный, СВ - северо-восточный, В - восточный, ЮВ - юго-восточный, Ю - южный, ЮЗ - юго-западный, З - западный, СЗ - северо-западный.
Видимость - горизонтальная дальность видимости в метрах или километрах. При видимости от 1 до 10 км при отсутствии осадков обычно наблюдается дымка, при ухудшении видимости до 1 км и менее - туман. В сухую погоду видимость может ухудшаться дымом, пылью или мглою.
Явления - указаны атмосферные явления, наблюдавшиеся в срок или в последний час перед сроком; фигурными скобками обозначены явления, наблюдавшиеся между сроками (за 1-3 часа до срока); квадратными скобками обозначены град или гололедные отложения с указанием их диаметра в мм.
Облачность - указаны через наклонную черту общая и нижняя облачность в баллах и высота нижней границы облаков в метрах; квадратными скобками обозначены формы облаков: Ci - перистые, Cs - перисто-слоистые, Cc - перисто-кучевые, Ac - высококучевые, As - высокослоистые, Sc - слоисто-кучевые, Ns - слоисто-дождевые, Cu - кучевые, Cb - кучево-дождевые. Подробнее классификацию облаков см. в Атласе облаков (PDF).
T - Температура воздуха - температура, измеренная на высоте 2 м над землей.
Td - Температура точки росы - температура, при понижении до которой содержащийся в воздухе водяной пар достигнет насыщения.
f - Относительная влажность воздуха - влажноcть воздуха, измеренная на высоте 2 м над землей.
Te - Эффективная температура - температура, которую ощущает одетый по сезону человек в тени. Характеристика душности погоды. При расчете учитывается влияние влажности воздуха и скорости ветра на теплоощущения человека.
Tes - Эффективная температура на солнце - температура, которую ощущает человек, с поправкой на солнечный нагрев. Характеристика знойности погоды. Зависит от высоты солнца над горизонтом, облачности и скорости ветра. Ночью, в пасмурную погоду, а также при ветре 12 м/с и более поправка равна нулю.
P - Атмосферное давление - приведенное к уровню моря атмосферное давление.
Po - Атмосферное давление - измеренное на уровне метеостанции атмосферное давление.
Tmin - Минимальная температура - минимум температуры воздуха на высоте 2 м над землей.
Tmax - Максимальная температура - максимум температуры воздуха на высоте 2 м над землей.
R - Количество осадков - Количество выпавших осадков за период времени, мм. При наведении курсора мыши на число - период времени, за который выпало указанное количество осадков.
R24 - Количество осадков - Количество выпавших осадков за 24 часа, мм.
S - Снежный покров - Высота снежного покрова, см. При наведении курсора мыши на число - состояние снежного покрова и степень покрытия местности в баллах.